Station PKBW3 - Pokegama Bay, Lake Superior Reserve, WI Image indicating link to RSS feed of recent meteorological observations for station PKBW3


Conditions at PKBW3 as of
(11:00 pm CDT on 08/31/2026)
0400 GMT on 09/01/2026:
     

Click on the graph icon in the table below to see a time series plot of the last five days of that observation.

5-day plot - Wind Speed Wind Speed (WSPD): 0.0 kts
5-day plot - Atmospheric Pressure Atmospheric Pressure (PRES):29.88 in
5-day plot - Pressure Tendency Pressure Tendency (PTDY):+0.03 in ( Rising )
5-day plot - Air Temperature Air Temperature (ATMP): 62.4 °F
5-day plot - Wind Speed at 10 Meters Wind Speed at 10 meters (WSPD10M): 1.9 kts
5-day plot - Wind Speed at 20 Meters Wind Speed at 20 meters (WSPD20M): 1.9 kts
5-day plot -  Wind Speed, Wind Gust and Atmospheric Pressure Combined plot of Wind Speed, Gust, and Air Pressure
Previous observations
TIME
(CDT)
5-day plot - Wind Direction
WDIR
 
5-day plot - Wind Speed
WSPD
kts
5-day plot - Wind Gust
GST
kts
5-day plot - Wave Height
WVHT
ft
5-day plot - Dominant Wave Period
DPD
sec
5-day plot - Average Wave Period
APD
sec
5-day plot - Mean Wave Direction
MWD
 
5-day plot - Atmospheric Pressure
PRES
in
5-day plot - Pressure Tendency
PTDY
in
5-day plot - Air Temperature
ATMP
°F
5-day plot - Water Temperature
WTMP
°F
5-day plot - Dew Point
DEWP
°F
5-day plot - Salinity
SAL
psu
5-day plot - Visibility
VIS
nmi
5-day plot - Tide (above MLLW)
TIDE
ft
2026-08-31 10:45 pm- 0.0-----29.88- 62.8-----
2026-08-31 10:30 pm- 0.0-----29.85- 63.1-----
2026-08-31 10:15 pm S 1.0-----29.85- 63.3-----
2026-08-31 10:00 pm S 1.9-----29.85+0.03 64.0-----
2026-08-31 09:45 pm- 0.0-----29.85- 64.8- 64.8---
2026-08-31 09:30 pm S 1.9-----29.85- 64.9- 64.6---
2026-08-31 09:15 pm S 2.9-----29.85- 65.5- 65.5---
2026-08-31 09:00 pm- 0.0-----29.85+0.03 66.4- 66.4---
2026-08-31 08:45 pm- 0.0-----29.85- 66.6- 66.2---
2026-08-31 08:30 pm- 0.0-----29.85- 67.3- 66.7---
2026-08-31 08:15 pm S 1.0-----29.85- 67.8- 66.7---
2026-08-31 08:00 pm S 1.0-----29.85+0.03 69.3- 66.9---
2026-08-31 07:45 pm- 0.0-----29.83- 71.6- 68.5---
2026-08-31 07:30 pm- 0.0-----29.83- 75.2- 69.4---
2026-08-31 07:15 pm- 0.0-----29.83- 79.5- 70.3---
2026-08-31 07:00 pm- 0.0-----29.83+0.00 80.8- 70.7---
2026-08-31 06:45 pmWNW 1.0-----29.83- 79.7- 70.9---
2026-08-31 05:45 pmWNW 1.0-----29.83- 83.8- 66.9---
2026-08-31 05:30 pmWNW 1.9-----29.83- 83.7- 66.7---
2026-08-31 05:15 pm NW 1.0-----29.83- 83.7- 68.2---
2026-08-31 05:00 pmWNW 1.0-----29.83+0.00 83.5- 67.5---
2026-08-31 04:45 pm NW 1.9-----29.83- 83.1- 68.7---
2026-08-31 04:30 pm NW 1.9-----29.83- 82.6- 69.1---
2026-08-31 04:15 pmNNW 1.0-----29.83- 82.4- 70.7---
2026-08-31 04:00 pmENE 1.9-----29.83+0.00 80.6- 71.1---
2026-08-31 03:45 pmENE 1.9-----29.83- 79.7- 70.9---
2026-08-31 03:30 pmENE 2.9-----29.83- 79.2- 70.7---
2026-08-31 03:15 pm NE 2.9-----29.83- 79.3- 71.2---
2026-08-31 03:00 pm NW 2.9-----29.83+0.00 79.2- 72.0---
2026-08-31 02:45 pm NW 2.9-----29.83- 79.9- 71.1---
2026-08-31 02:30 pmWNW 4.1-----29.83- 79.7- 71.2---
2026-08-31 02:15 pm SW 2.9-----29.83- 78.8- 72.7---
2026-08-31 02:00 pmESE 1.0-----29.83+0.00 77.5- 72.5---
2026-08-31 01:45 pm NE 1.9-----29.83- 75.7- 71.8---
2026-08-31 01:30 pmNNW 4.1-----29.83- 75.4- 72.0---
2026-08-31 01:15 pmWSW 1.0-----29.83- 75.9- 72.1---
2026-08-31 01:00 pm SW 1.0-----29.83+0.00 74.8- 71.4---
2026-08-31 12:45 pmWSW 1.9-----29.83- 74.3- 70.9---
2026-08-31 12:30 pmSSE 1.9-----29.83- 73.8- 71.1---
2026-08-31 12:15 pm W 1.0-----29.83- 71.6- 69.8---
2026-08-31 12:00 pmWNW 1.9-----29.83+0.03 70.5- 69.4---
2026-08-31 11:45 am- 0.0-----29.83- 70.3- 69.3---
2026-08-31 11:30 am- 0.0-----29.83- 69.1- 68.5---
2026-08-31 11:15 am- 0.0-----29.83- 68.5- 68.2---
2026-08-31 11:00 am- 0.0-----29.83+0.03 67.6-----
2026-08-31 10:45 am- 0.0-----29.83- 67.1-----
2026-08-31 10:30 am NW 1.9-----29.83- 66.6-----
2026-08-31 10:15 amWNW 1.9-----29.83- 66.0-----
2026-08-31 10:00 amWNW 1.9-----29.83+0.03 65.5-----
2026-08-31 09:45 am NW 1.0-----29.80- 65.1-----
2026-08-31 09:30 am- 0.0-----29.80- 64.8-----
2026-08-31 09:15 am- 0.0-----29.80- 64.4-----
2026-08-31 09:00 am- 0.0-----29.80+0.03 64.0-----
2026-08-31 08:45 am- 0.0-----29.80- 63.9-----
2026-08-31 08:30 am- 0.0-----29.80- 63.5-----
2026-08-31 08:15 am SE 1.0-----29.80- 63.1-----
2026-08-31 08:00 am E 1.0-----29.80+0.00 62.8-----
2026-08-31 07:45 am NE 1.0-----29.80- 62.8-----
2026-08-31 07:30 amENE 1.9-----29.80- 62.6-----
2026-08-31 07:15 am NE 1.9-----29.80- 62.8-----
2026-08-31 07:00 amNNE 1.9-----29.80+0.03 63.0-----
2026-08-31 06:45 am NE 1.9-----29.77- 62.8-----
2026-08-31 06:30 amENE 1.9-----29.77- 62.8-----
2026-08-31 06:15 amNNE 1.9-----29.80- 62.8-----
2026-08-31 06:00 amSSE 1.9-----29.77-0.03 62.8-----
2026-08-31 05:45 am E 1.9-----29.80- 62.8-----
2026-08-31 05:30 am E 1.9-----29.80- 62.8-----
2026-08-31 05:15 amESE 1.9-----29.77- 62.6-----
2026-08-31 05:00 am E 4.1-----29.80+0.00 62.6-----
2026-08-31 04:45 am NE 2.9-----29.80- 62.8-----
2026-08-31 04:30 am NE 4.1-----29.80- 62.8-----
2026-08-31 04:15 am NE 1.9-----29.80- 62.4-----
2026-08-31 04:00 am E 1.9-----29.77-0.09 62.1-----
2026-08-31 03:45 am NE 1.9-----29.77- 61.5-----
2026-08-31 03:30 am NE 1.9-----29.77- 61.2-----
2026-08-31 03:15 amNNE 2.9-----29.77- 61.3-----
2026-08-31 03:00 amNNE 2.9-----29.80-0.06 61.5-----
2026-08-31 02:45 am NE 2.9-----29.80- 61.9-----
2026-08-31 02:30 am NE 2.9-----29.80- 62.4-----
2026-08-31 02:15 am NE 2.9-----29.80- 62.6-----
2026-08-31 02:00 am E 2.9-----29.80-0.06 62.8-----
2026-08-31 01:45 amENE 1.9-----29.80- 62.6-----
2026-08-31 01:30 amESE 2.9-----29.83- 62.8-----
2026-08-31 01:15 am E 2.9-----29.83- 62.6-----
2026-08-31 01:00 am E 2.9-----29.85+0.00 62.6-----
2026-08-31 12:45 am E 4.1-----29.85- 63.0-----
2026-08-31 12:30 am E 2.9-----29.85- 63.3-----
2026-08-31 12:15 am E 4.1-----29.85- 63.5-----
2026-08-31 12:00 am NE 2.9-----29.85-0.03 63.0-----